TITAN 3C TRANSTAGE DEB, 3978

Orbit data source: Space-Track

TITAN 3C TRANSTAGE DEB, 3978 is space debris in LEO originally from a launch on Fri, 15 Oct 1965 UTC launched from the Air Force Eastern Test Range (AFETR). Debris objects in space refer to the collection of defunct objects orbiting the Earth. Examples of debris include non-operational satellites, rocket bodies, and fragments generated from explosions, collisions, or faulty payload assembly.

Loading next visibility...
Identifier
3978, 1965-082SE
Orbit
LEO
Country
Flag of USUS
Related business
Manufacturer
Unknown
Mission
Spacecraft
Bus & Motor
Unknown
Mass
Unknown
Launch date (UTC)
1965-10-15 (61 years ago)
Launch vehicle
Unknown
Launch site
Air Force Eastern Test Range (AFETR)
Object type
Payload
Rocket body
Debris
Shape & HBR
Unknown shape, 0.1 m
Radar Cross Section
Medium (>0.1 m² and <1 m²)

Expand to show TLE details & history
Last TLE update: 21 hours ago

TLE from 21 hours ago
0 TITAN 3C TRANSTAGE DEB
1 03978U 65082SE  26235.27363810  .00000529  00000-0  79736-4 0  9998
2 03978  32.5628 231.4178 0033971 212.4793 147.3771 14.70533164456797
Epoch: 2026-08-23T06:34Z
TLE epoch observation values (Epoch: 2026-08-23T06:34:02.331Z)
Latitude
Longitude
161.33604°
Altitude
678.208 km
Speed
7.509 km/s
True Right ascension
15h 25m 40s
True Declination
0° 00' 00"
Sunlit
Object was in daylight at epoch
Visualization orbit readout
Latitude
Unknown
Longitude
Unknown
Altitude
Unknown
Speed
Unknown
Apparent Right ascension
Unknown
Apparent Declination
Unknown
Sunlit
N/A
Visualization observer readout
Local Sidereal Time
18:56:45
Azimuth
Unknown
Elevation
Unknown
Doppler factor
Unknown
Orbital elements
Apogee altitude
686.83 km
Perigee altitude
638.992 km
Semi-major axis
7,041.048 km
Eccentricity
0.0034
Inclination
32.5628°
RAAN
231.4178°
Arg. of periapsis
212.4793°
True anomaly
147.58621°
Mean anomaly
147.3771°
Eccentric anomaly
147.48173°
Mean motion
3.67356 °/min
Orbital period
98 mins
BSTAR
0.000079736

Documentation

Showing up to 5 results
|